This demonstration page uses our WeatherBlox Daily Observations layout. Learn more.

Left ArrowRight Arrow

Hourly Observations for December 3, 2022

Temp ( °F °C ) Dew Point ( °F °C ) Humidity (%) Winds ( mph kmh ) Pressure ( in mb ) Visibility ( mi km ) Precip ( " mm )
12:52 am 00:52 Clear 16 -8.9 4 -15.6 58 58 NW 17 28 30.39 1029 10 16 0.00 0.00
1:52 am 01:52 Clear 15 -9.4 4 -15.6 60 60 NW 17 28 30.42 1030 10 16 0.00 0.00
2:52 am 02:52 Clear 13 -10.6 3 -16.1 64 64 NW 15 24 30.46 1032 10 16 0.00 0.00
3:52 am 03:52 Clear 11 -11.7 3 -16.1 70 70 NNW 10 17 30.48 1032 10 16 0.00 0.00
4:52 am 04:52 Clear 11 -11.7 2 -16.7 66 66 NW 10 17 30.54 1034 10 16 0.00 0.00
5:52 am 05:52 Clear 11 -11.7 2 -16.7 66 66 WNW 10 17 30.58 1036 10 16 0.00 0.00
6:52 am 06:52 Clear 9 -12.8 1 -17.2 69 69 NW 8 13 30.58 1036 10 16 0.00 0.00
7:52 am 07:52 Sunny 11 -11.7 2 -16.7 66 66 WNW 6 9 30.62 1037 10 16 0.00 0.00
8:52 am 08:52 Mostly Sunny 14 -10 4 -15.6 63 63 WNW 10 17 30.63 1037 10 16 0.00 0.00
9:52 am 09:52 Mostly Sunny 17 -8.3 5 -15 58 58 WNW 9 15 30.63 1037 10 16 0.00 0.00
10:52 am 10:52 Mostly Sunny 20 -6.7 6 -14.4 54 54 VRB 6 9 30.64 1038 10 16 0.00 0.00
11:52 am 11:52 Partly Cloudy 23 -5 6 -14.4 48 48 VRB 3 6 30.60 1036 10 16 0.00 0.00
12:52 pm 12:52 Partly Cloudy 25 -3.9 7 -13.9 46 46 Calm 30.54 1034 10 16 0.00 0.00
1:52 pm 13:52 Mostly Cloudy 28 -2.2 7 -13.9 40 40 SSW 6 9 30.50 1033 10 16 0.00 0.00
2:52 pm 14:52 Mostly Cloudy 30 -1.1 9 -12.8 40 40 S 13 20 30.48 1032 10 16 0.00 0.00
3:52 pm 15:52 Mostly Cloudy 31 -0.6 10 -12.2 41 41 S 10 17 30.46 1032 10 16 0.00 0.00
4:52 pm 16:52 Mostly Cloudy 30 -1.1 9 -12.8 40 40 S 13 20 30.45 1031 10 16 0.00 0.00
5:52 pm 17:52 Mostly Cloudy 28 -2.2 10 -12.2 46 46 S 13 20 30.44 1031 10 16 0.00 0.00
6:52 pm 18:52 Mostly Cloudy 25 -3.9 10 -12.2 52 52 S 12 19 30.42 1030 10 16 0.00 0.00
7:52 pm 19:52 Mostly Cloudy 26 -3.3 10 -12.2 50 50 S 12 19 30.41 1030 10 16 0.00 0.00
8:52 pm 20:52 Mostly Cloudy 26 -3.3 11 -11.7 52 52 S 12 19 30.39 1029 10 16 0.00 0.00
9:52 pm 21:52 Mostly Cloudy 26 -3.3 11 -11.7 52 52 S 10 17 30.37 1028 10 16 0.00 0.00
10:52 pm 22:52 Mostly Cloudy 23 -5 12 -11.1 62 62 SSE 13 20 30.36 1028 10 16 0.00 0.00
11:52 pm 23:52 Mostly Cloudy 25 -3.9 12 -11.1 57 57 S 9 15 30.33 1027 10 16 0.00 0.00

Powered by AerisWeather